Location: Passo di Treia
(43.2833°N, 13.3333°E)
Time: 00:42:55
(UTC+00:00)

Cosmos 1980 - Pass Details

Date: 09 December 2019
Orbit: 838 x 848 km, 71.0° (Epoch: 17 January)

Event Time Altitude Azimuth Distance (km) Brightness Sun altitude
Rises 16:32:01 0° 198° (SSW) 3,374 7.4 -10.8°
Reaches altitude 10° 16:34:26 10° 196° (SSW) 2,445 6.6 -11.2°
Maximum altitude 16:40:02 76° 112° (ESE) 868 3.7 -12.2°
Drops below altitude 10° 16:45:41 10° 28° (NNE) 2,466 5.7 -13.1°
Enters shadow 16:46:06 - 28° (NNE) 2,622 5.8 -13.2°
